Regional Weather Roundup
Issued by NWS Charleston, SC

Current Version | Previous Version | Graphics & Text | Print | Product List | Glossary On
Versions: 1 2 3 4 5 6 7 8 9 10 11 12 13 14 15 16 17 18 19 20 21 22 23 24 25 26 27 28 29 30 31 32 33 34 35 36 37 38 39 40 41 42 43 44 45 46 47 48 49 50
000
ASUS42 KCHS 080027
RWRCHS

REGIONAL WEATHER ROUNDUP
NATIONAL WEATHER SERVICE CHARLESTON SC
800 PM EDT TUE JUL 07 2015

NOTE: "FAIR" INDICATES FEW OR NO CLOUDS BELOW 12,000 FEET WITH NO
SIGNIFICANT WEATHER AND/OR OBSTRUCTIONS TO VISIBILITY.

NOT ALL STATIONS ARE QUALITY CONTROLLED BY THE NATIONAL
WEATHER SERVICE. USE DATA WITH CAUTION...ESPECIALLY
DEWPOINT OBSERVATIONS.

SCZ027-030-031-034>040-042>050-080100-
...SOUTHEAST SOUTH CAROLINA...

CITY           SKY/WX    TMP DP  RH WIND       PRES   REMARKS
N CHARLESTON   CLOUDY    81  74  79 S7        30.11F
6HR MIN TEMP:  75; 6HR MAX TEMP:  82; 6HR PCP:  0.07;

WATERFRONT PAR   N/A     82  75  79 S7        30.09S
MOUNT PLEASANT LGT RAIN  82  73  74 S7        30.12S
JOHNS ISLAND   FAIR      81  75  83 S9        30.12S
PINOPOLIS      NOT AVBL
MONCKS CORNER  FAIR      81  73  78 CALM      30.11S
SUMMERVILLE    FAIR      79  75  89 CALM      30.12S
BEAUFORT MCAS  CLOUDY    81  74  79 S3        30.12R
6HR MIN TEMP:  77; 6HR MAX TEMP:  81; 6HR PCP: TRACE;

BEAUFORT ARPT  FAIR      79  75  89 CALM      30.12R
HILTON HEAD IS CLOUDY    79  75  89 SE8       30.14R
WALTERBORO     MOCLDY    79  70  73 S7        30.13R
ALLENDALE      FAIR      82  73  74 S6        30.11R

...SOUTHERN MIDLANDS AND PEE DEE...

CITY           SKY/WX    TMP DP  RH WIND       PRES   REMARKS
GEORGETOWN     NOT AVBL
KINGSTREE      NOT AVBL
ORANGEBURG     PTCLDY    81  72  74 S6        30.11R
6HR MIN TEMP:  78; 6HR MAX TEMP:  90; 6HR PCP:  0.19;

BARNWELL       FAIR      82  75  78 S7        30.11R
AIKEN          NOT AVBL
MANNING        FAIR      79  70  73 S5        30.11R
COLUMBIA       PTCLDY    89  67  47 SW5       30.08R HX  92
6HR MIN TEMP:  89; 6HR MAX TEMP:  94;

SUMTER         CLEAR     84  73  70 S10       30.08R HX  91
6HR MIN TEMP:  84; 6HR MAX TEMP:  92;

FLORENCE       CLEAR     85  73  67 S13       30.08R HX  91
6HR MIN TEMP:  85; 6HR MAX TEMP:  93;

MYRTLE BEACH   CLEAR     82  73  74 SW13      30.12F
N MYRTLE BEACH MOCLDY    82  73  74 SW14      30.11S
6HR MIN TEMP:  82; 6HR MAX TEMP:  86;


$$

GAZ063-065-086>088-099>101-113>116-118-119-134>141-150-080100-
...SOUTHEAST GEORGIA...

CITY           SKY/WX    TMP DP  RH WIND       PRES   REMARKS
SAVANNAH ARPT  CLOUDY    78  73  84 SW3       30.12S
6HR MIN TEMP:  74; 6HR MAX TEMP:  89; 6HR PCP:  0.86;

HUNTER AAF     CLOUDY    79  76  91 S7        30.10S
6HR MIN TEMP:  73; 6HR MAX TEMP:  89; 6HR PCP:  0.80;

FORT STEWART   CLOUDY    74  69  85 VRB2      30.11S
6HR MIN TEMP:  74; 6HR MAX TEMP:  93; 6HR PCP:  0.05;

STATESBORO     NOT AVBL
SYLVANIA       CLEAR     83  75  74 S5        30.13R HX  91
CLAXTON        FAIR      81  73  78 SE5       30.12R

...CSRA...CENTRAL AND FAR SOUTHEAST GEORGIA...

CITY           SKY/WX    TMP DP  RH WIND       PRES   REMARKS
THOMSON        PTCLDY    85  78  81 CALM      30.15R HX  97
AUGUSTA-BUSH   PTCLDY    88  71  57 W3        30.08R HX  94
6HR MIN TEMP:  88; 6HR MAX TEMP:  93;

AUGUSTA-DANIEL CLEAR     89  69  51 CALM      30.11R HX  93
SWAINSBORO     FAIR      88  75  66 CALM      30.11R HX  97
VIDALIA        PTCLDY    88  70  55 CALM      30.12R HX  92
EASTMAN        FAIR      84  76  75 CALM      30.14R HX  93
HAZLEHURST     FAIR      86  72  62 CALM      30.11R HX  92
ALMA           MOCLDY    85  73  67 SE13      30.12R HX  91
6HR MIN TEMP:  85; 6HR MAX TEMP:  92;

WAYCROSS       CLOUDY    85  76  74 SE7       30.14R HX  95
JESUP          FAIR      77  73  88 SW3       30.13S
BAXLEY         FAIR      82  73  74 SE7       30.13R
BRUNSWICK      MOCLDY    77  72  83 NW3       30.15S
SAINT SIMONS   PTCLDY    80  71  74 S6        30.14R
6HR MIN TEMP:  77; 6HR MAX TEMP:  87;


$$

SCZ027-028-034-036>038-045-046-048>050-GAZ119-141-080100-
...LAKE AND SUPPLEMENTAL COASTAL OBSERVATIONS...

STATION/POSITION TIME  TEMP    WIND        PRES    WAVE   SWELL
                       AIR SEA DIR/SP/G            HT/PER HT/PER/DIR
                 (UTC) (F)     (DEG/KT/KT) (MB)    (FT/S) (FT/S/D)
UPR LAKE MARION  NOT AVBL
WINYAH BAY       2300   83     210/ 10     1019.0S
LAKE MURRAY      0000   88     260/  7/  9 1017.9R
ACE BASIN NERRS  NOT AVBL
FORT PULASKI     0000   81 84  180/  6/ 10 1020.6R
SAPELO ISLAND    0000   80     190/  5     1020.0S

$$

ANZ835-935-AMZ111-154-330-350-352-354-370-450-454-472-080100-
...C-MAN AND BUOY OBSERVATIONS...

STATION/POSITION TIME  TEMP    WIND        PRES    WAVE   SWELL
                       AIR SEA DIR/SP/G            HT/PER HT/PER/DIR
                 (UTC) (F)     (DEG/KT/KT) (MB)    (FT/S) (FT/S/D)
BUOY 41004       2350   83 83  210/ 12/ 12 1019.9R   3/ 8   2/ 8
BUOY 41008       2350   79 80  200/ 10/ 12 1020.8R   2/ 9   2/100/ 9
FOLLY BEACH CMAN 0000   81     190/ 12/ 14 1020.0S
CAPERS NEARSHORE 2308   81     210/ 14/ 17 1020.3R
FRIPP NEARSHORE  2300   82     190/ 10/ 12 1019.7R


STATION/POSITION TIME  TEMP    WIND        PRES    WAVE   SWELL
                       AIR SEA DIR/SP/G            HT/PER HT/PER/DIR
                 (UTC) (F)     (DEG/KT/KT) (MB)    (FT/S) (FT/S/D)
5E ST. MARYS GA  2321      79                N/A     2/ 9
FRYING PAN BUOY  2350   82 81  210/ 10/ 12 1020.4R   3/ 8   2/120/ 8
BUOY 41025       2350   82 83  210/ 17/ 19 1019.2F   3/ 8   2/120/ 8
CAPE LOOKOUT NC  0000   81     210/ 10/ 13 1019.5R
BUOY 41002       2350   83 81  210/ 10/ 10 1022.2R   4/ 8   3/120/ 8
BUOY 41010       2320   83 84  210/  8/ 10 1021.4R
ST AUGUSTINE FL  0000   80 76  230/  6/  7 1021.6F


$$



USA.gov is the U.S. government's official web portal to all federal, state and local government web resources and services.